[[{"header":{"parameterUnit":"m.s-1","parameterCategory":1,"la1":30.2991,"la2":30.254,"lo1":-89.0895,"lo2":-89.0444,"dy":0.0017,"dx":0.0017,"nx":28,"ny":28,"refTime":"2023-10-06T09:00:00:Z","depth":0,"parameterNumber":2,"parameterNumberName":"U-component_of_WINDS"},"data":[0,0,0,0,0,0,0,0,0,0,0,0,0,0,0,0,0,0,0,0,0,0,0,0,0,0,0,0,0,0,0,0,0,0,0,0,0,0,0,0,0,0,0,0,0,0,0,0,0,0,0,0,0,0,0,0,0,0,-0.4165,-0.4164,0,-0.4138,-0.4138,-0.4138,-0.4097,-0.4097,-0.4096,-0.4095,-0.4068,-0.4068,-0.4068,0,0,0,0,0,0,0,0,0,0,0,0,0,-0.4179,-0.4179,-0.4165,-0.4164,-0.4164,-0.4138,-0.4138,-0.4137,-0.4097,-0.4097,-0.4096,-0.4095,-0.4068,-0.4068,-0.4068,0,0,0,0,0,0,0,0,0,0,0,0,0,-0.4165,-0.4179,-0.4165,-0.4141,-0.4138,-0.4138,-0.4138,-0.4137,-0.4098,-0.4097,-0.4096,-0.4095,-0.4068,-0.4068,-0.4068,-0.4089,0,0,-0.4068,-0.4068,0,0,0,0,0,0,0,0,-0.4165,-0.4164,-0.4145,-0.4142,-0.414,-0.412,-0.4133,-0.4121,-0.4098,-0.4113,-0.4095,-0.4094,-0.4086,-0.4085,-0.4082,-0.4088,-0.4086,-0.4068,-0.4068,-0.4068,-0.4068,0,0,0,0,0,0,0,-0.4167,-0.4165,-0.4154,-0.4144,-0.4141,-0.4131,-0.4128,-0.413,-0.4106,-0.4112,-0.4109,-0.4106,-0.4085,-0.4082,-0.4081,-0.4086,-0.4068,-0.4068,-0.4068,-0.4068,-0.4106,-0.4107,0,0,0,0,0,0,-0.4171,-0.4166,-0.4155,-0.4153,-0.415,-0.4132,-0.4128,-0.4127,-0.4106,-0.4102,-0.4107,-0.4104,-0.4083,-0.4081,-0.408,-0.4102,-0.4068,-0.4068,-0.4068,-0.4105,-0.4106,-0.4107,0,0,0,0,0,0,-0.4172,-0.4171,-0.4156,-0.4159,-0.4156,-0.4133,-0.4132,-0.4127,-0.4125,-0.4102,-0.4098,-0.4109,-0.4082,-0.408,-0.4087,-0.4101,-0.4068,-0.4067,-0.4103,-0.4105,-0.4107,-0.4147,0,0,0,0,0,0,-0.4172,-0.4171,-0.4179,-0.4159,-0.4156,-0.4164,-0.4133,-0.4128,-0.4125,-0.4121,-0.4103,-0.4099,-0.4081,-0.4087,-0.4087,-0.41,-0.4067,-0.4102,-0.4104,-0.4106,-0.4145,-0.415,-0.4155,0,0,0,0,0,-0.4173,-0.4192,-0.418,-0.4179,-0.4166,-0.4165,-0.4163,-0.4142,-0.4126,-0.4134,-0.4119,-0.41,-0.4099,-0.4088,-0.4087,-0.4101,-0.4101,-0.4104,-0.4106,-0.4142,-0.4149,-0.4155,0,0,0,0,0,0,-0.4215,-0.4189,-0.4175,-0.4189,-0.4179,-0.4158,-0.4167,-0.415,-0.4144,-0.4141,-0.4115,-0.4111,-0.4121,-0.4111,-0.4099,-0.4119,-0.4097,-0.4099,-0.4125,-0.4131,-0.4136,-0.4138,-0.4067,0,0,0,0,0,-0.4225,-0.4227,-0.4204,-0.4218,-0.4214,-0.4191,-0.419,-0.4174,-0.4163,-0.4159,-0.4145,-0.4135,-0.4132,-0.4131,-0.4127,-0.4143,-0.4138,-0.4152,-0.4157,-0.4161,-0.4163,-0.417,-0.4175,-0.4115,-0.4115,-0.4115,0,0,-0.4248,-0.4234,-0.4236,-0.4226,-0.4217,-0.4218,-0.4188,-0.4192,-0.4192,-0.416,-0.4165,-0.4154,-0.4141,-0.4151,-0.4155,-0.4144,-0.4179,-0.4164,-0.4168,-0.4168,-0.4173,-0.4178,-0.4183,-0.4117,-0.4116,-0.4116,0,0,-0.4289,-0.4279,-0.4289,-0.428,-0.4266,-0.4251,-0.4253,-0.4234,-0.4225,-0.423,-0.4205,-0.4205,-0.4202,-0.4193,-0.4188,-0.4224,-0.4205,-0.4223,-0.425,-0.4256,-0.4261,-0.4265,-0.4277,-0.4282,-0.4226,-0.4226,-0.4226,0,-0.4319,-0.432,-0.4296,-0.4301,-0.4296,-0.4266,-0.4276,-0.4268,-0.4254,-0.4251,-0.4238,-0.4232,-0.4221,-0.4229,-0.4237,-0.4235,-0.4236,-0.4226,-0.4262,-0.4266,-0.427,-0.4281,-0.4286,-0.4228,-0.4228,-0.4227,-0.4227,0,-0.4357,-0.4358,-0.4368,-0.4354,-0.4351,-0.4358,-0.4334,-0.4334,-0.4318,-0.4303,-0.4308,-0.4293,-0.4286,-0.4286,-0.4271,-0.4291,-0.4284,-0.4267,-0.4245,-0.4278,-0.4288,-0.4292,-0.4231,-0.423,-0.423,-0.4229,0,0,-0.4425,-0.4397,-0.4401,-0.4394,-0.4376,-0.4376,-0.4381,-0.4373,-0.4372,-0.4363,-0.4366,-0.4363,-0.4346,-0.4341,-0.4324,-0.4329,-0.4357,-0.4311,-0.431,-0.432,-0.4378,-0.4391,-0.4396,-0.4345,-0.4345,-0.4346,-0.4379,0,-0.4463,-0.447,-0.4448,-0.4461,-0.4461,-0.4431,-0.4435,-0.4424,-0.441,-0.4408,-0.4392,-0.439,-0.4369,-0.4365,-0.4369,-0.4353,-0.4369,-0.4351,-0.4347,-0.4347,-0.4351,-0.4402,-0.4416,-0.4448,-0.4383,-0.4383,-0.4384,0,-0.4508,-0.4501,-0.4513,-0.4493,-0.4492,-0.4496,-0.4486,-0.4485,-0.4471,-0.446,-0.4453,-0.4433,-0.4435,-0.4413,-0.4415,-0.4403,-0.44,-0.4392,-0.4392,-0.4392,-0.4368,-0.4402,-0.4457,-0.4462,-0.439,-0.4389,-0.4389,0,-0.4557,-0.4549,-0.4556,-0.455,-0.4527,-0.453,-0.452,-0.4505,-0.4501,-0.4492,-0.449,-0.4481,-0.4477,-0.447,-0.4448,-0.4434,-0.4453,-0.4429,-0.4443,-0.4444,-0.4449,-0.4449,-0.4505,-0.4447,-0.4447,-0.4447,-0.4447,0,-0.4601,-0.461,-0.4577,-0.4581,-0.4589,-0.4563,-0.4572,-0.4559,-0.4545,-0.4546,-0.4519,-0.452,-0.4491,-0.4488,-0.447,-0.4474,-0.4472,-0.4463,-0.4459,-0.4466,-0.4467,-0.4464,-0.4461,-0.4448,-0.4448,-0.4448,-0.4448,0,-0.4657,-0.4635,-0.464,-0.4617,-0.4611,-0.4618,-0.4598,-0.46,-0.4583,-0.4584,-0.4583,-0.4557,-0.4552,-0.4529,-0.4519,-0.4507,-0.4517,-0.4508,-0.4522,-0.4519,-0.4534,-0.4533,-0.459,-0.4595,-0.4535,-0.4535,-0.4536,0,-0.4687,-0.4693,-0.467,-0.4668,-0.4659,-0.4657,-0.4653,-0.4626,-0.4623,-0.4606,-0.461,-0.4603,-0.4596,-0.4589,-0.4569,-0.4561,-0.4551,-0.4571,-0.455,-0.4556,-0.4551,-0.4551,-0.4551,-0.4576,-0.4577,-0.4578,-0.4578,0,-0.4743,-0.4731,-0.4726,-0.4717,-0.4712,-0.4704,-0.4694,-0.4693,-0.4664,-0.4661,-0.4656,-0.465,-0.4639,-0.4632,-0.462,-0.4609,-0.4588,-0.4585,-0.4588,-0.4595,-0.4603,-0.4599,-0.4534,-0.4584,-0.4583,-0.4583,-0.4583,-0.4583,-0.4786,-0.479,-0.4773,-0.4768,-0.4758,-0.4748,-0.4749,-0.4732,-0.4727,-0.4716,-0.4701,-0.4697,-0.4681,-0.4662,-0.4653,-0.4649,-0.4637,-0.4642,-0.4643,-0.4644,-0.4647,-0.4604,-0.4646,-0.4646,-0.4646,-0.4646,-0.4646,0,-0.484,-0.4828,-0.4823,-0.4809,-0.4805,-0.4786,-0.4773,-0.477,-0.4767,-0.4754,-0.4747,-0.474,-0.4732,-0.4712,-0.4702,-0.4702,-0.4693,-0.4701,-0.47,-0.4698,-0.4658,-0.4657,-0.4709,-0.4709,-0.4709,-0.4708,-0.4708,-0.4708,-0.4868,-0.4872,-0.4858,-0.4856,-0.4844,-0.484,-0.4834,-0.4825,-0.4814,-0.4807,-0.4801,-0.4787,-0.477,-0.4758,-0.475,-0.4744,-0.4741,-0.4752,-0.4743,-0.4707,-0.4701,-0.4695,-0.4693,-0.4752,-0.4752,-0.4783,-0.4783,-0.4784]},{"header":{"parameterUnit":"m.s-1","parameterCategory":1,"la1":30.2991,"la2":30.254,"lo1":-89.0895,"lo2":-89.0444,"dy":0.0017,"dx":0.0017,"nx":28,"ny":28,"refTime":"2023-10-06T09:00:00:Z","depth":0,"parameterNumber":3,"parameterNumberName":"V-component_of_WINDS"},"data":[0,0,0,0,0,0,0,0,0,0,0,0,0,0,0,0,0,0,0,0,0,0,0,0,0,0,0,0,0,0,0,0,0,0,0,0,0,0,0,0,0,0,0,0,0,0,0,0,0,0,0,0,0,0,0,0,0,0,-6.816,-6.8162,0,-6.8305,-6.8306,-6.8308,-6.8236,-6.8232,-6.8228,-6.8224,-6.8366,-6.8373,-6.838,0,0,0,0,0,0,0,0,0,0,0,0,0,-6.7815,-6.7822,-6.816,-6.8162,-6.8164,-6.8304,-6.8306,-6.8308,-6.8236,-6.8232,-6.8227,-6.8223,-6.8364,-6.8372,-6.8381,0,0,0,0,0,0,0,0,0,0,0,0,0,-6.7963,-6.7824,-6.816,-6.8145,-6.8145,-6.8304,-6.8306,-6.8309,-6.8237,-6.8232,-6.8226,-6.8221,-6.8361,-6.8371,-6.8382,-6.8562,0,0,-6.8415,-6.842,0,0,0,0,0,0,0,0,-6.7954,-6.7975,-6.8145,-6.8146,-6.8147,-6.8246,-6.8236,-6.8393,-6.8239,-6.8202,-6.8224,-6.8218,-6.833,-6.8343,-6.8383,-6.8569,-6.8575,-6.8416,-6.8423,-6.8428,-6.8431,0,0,0,0,0,0,0,-6.7944,-6.7969,-6.8217,-6.8148,-6.8149,-6.8129,-6.8143,-6.8266,-6.8296,-6.8205,-6.82,-6.8218,-6.833,-6.8372,-6.8385,-6.8577,-6.8416,-6.8426,-6.8433,-6.8437,-6.8916,-6.8922,0,0,0,0,0,0,-6.7936,-6.7961,-6.8212,-6.8221,-6.8035,-6.814,-6.8156,-6.822,-6.8294,-6.83,-6.8223,-6.8214,-6.8356,-6.8373,-6.839,-6.8605,-6.8428,-6.8438,-6.8444,-6.891,-6.8917,-6.8924,0,0,0,0,0,0,-6.7928,-6.7959,-6.8206,-6.809,-6.812,-6.8152,-6.8224,-6.8226,-6.8268,-6.8308,-6.8312,-6.8262,-6.8353,-6.8375,-6.852,-6.8609,-6.8443,-6.8453,-6.8903,-6.8912,-6.8921,-6.9037,0,0,0,0,0,0,-6.7919,-6.7957,-6.8027,-6.8092,-6.8126,-6.8336,-6.8229,-6.8233,-6.8288,-6.8278,-6.8346,-6.8351,-6.835,-6.8504,-6.8531,-6.8621,-6.8461,-6.8895,-6.8907,-6.8918,-6.9025,-6.9049,-6.9069,0,0,0,0,0,-6.7907,-6.8053,-6.8031,-6.8062,-6.8215,-6.8342,-6.8361,-6.8359,-6.8296,-6.8366,-6.8391,-6.8349,-6.8595,-6.852,-6.8549,-6.8644,-6.8889,-6.8903,-6.8917,-6.9015,-6.9044,-6.9068,0,0,0,0,0,0,-6.7995,-6.8061,-6.8038,-6.8209,-6.8271,-6.8329,-6.8417,-6.839,-6.8468,-6.8456,-6.8447,-6.8463,-6.8614,-6.8643,-6.8558,-6.8821,-6.8732,-6.8752,-6.8796,-6.8824,-6.8846,-6.8835,-6.847,0,0,0,0,0,-6.8035,-6.8134,-6.8185,-6.8332,-6.8364,-6.8386,-6.8441,-6.8434,-6.8496,-6.8521,-6.8557,-6.8617,-6.8708,-6.8768,-6.8853,-6.9029,-6.9041,-6.9108,-6.913,-6.9148,-6.9166,-6.9259,-6.9289,-6.897,-6.897,-6.8969,0,0,-6.8118,-6.8166,-6.8229,-6.8351,-6.8398,-6.8499,-6.8408,-6.8519,-6.8593,-6.8537,-6.8677,-6.8705,-6.8772,-6.8933,-6.9005,-6.8962,-6.9257,-6.9166,-6.918,-6.9188,-6.9277,-6.9307,-6.9334,-6.8979,-6.8978,-6.8976,0,0,-6.832,-6.8367,-6.8494,-6.8543,-6.8616,-6.8629,-6.8659,-6.8723,-6.874,-6.8881,-6.8841,-6.8927,-6.9084,-6.9133,-6.9178,-6.9399,-6.9363,-6.9427,-6.9541,-6.9633,-6.9658,-6.968,-6.9758,-6.9786,-6.9444,-6.9444,-6.9445,0,-6.8413,-6.8565,-6.8562,-6.8676,-6.873,-6.8687,-6.8814,-6.8861,-6.8957,-6.8994,-6.8944,-6.914,-6.9182,-6.9353,-6.9407,-6.9446,-6.9478,-6.9419,-6.9655,-6.9677,-6.9698,-6.9772,-6.9801,-6.9452,-6.9451,-6.945,-6.9449,0,-6.8675,-6.8782,-6.8875,-6.8971,-6.9036,-6.9156,-6.9169,-6.9234,-6.9221,-6.9239,-6.9382,-6.943,-6.9525,-6.9565,-6.9553,-6.9735,-6.9705,-6.9656,-6.9566,-6.9736,-6.9805,-6.9833,-6.9462,-6.9459,-6.9457,-6.9456,0,0,-6.8937,-6.903,-6.9065,-6.9107,-6.9184,-6.9265,-6.9382,-6.9477,-6.9532,-6.96,-6.9696,-6.983,-6.9785,-6.9836,-6.9829,-6.991,-7.008,-6.985,-6.9851,-6.989,-7.0282,-7.0318,-7.0351,-7.0057,-7.0062,-7.0066,-7.0276,0,-6.9144,-6.9352,-6.9352,-6.9542,-6.964,-6.9599,-6.9701,-6.9758,-6.9777,-6.9861,-6.9881,-6.9976,-6.991,-6.9941,-7.0019,-7.0043,-7.0158,-7.0028,-7.0145,-7.0149,-7.0129,-7.0388,-7.0427,-7.0622,-7.0303,-7.0308,-7.0311,0,-6.9413,-6.9492,-6.9693,-6.9755,-6.9796,-6.9888,-6.9974,-7.0055,-7.0117,-7.0126,-7.0184,-7.0164,-7.0281,-7.0188,-7.0348,-7.0259,-7.0307,-7.0326,-7.0333,-7.0344,-7.024,-7.0404,-7.0684,-7.0714,-7.0354,-7.035,-7.0347,0,-6.9583,-6.9739,-6.9879,-6.9917,-6.9993,-7.0058,-7.0093,-7.015,-7.0207,-7.0281,-7.0317,-7.0404,-7.0451,-7.0517,-7.052,-7.0453,-7.0681,-7.0589,-7.069,-7.069,-7.0739,-7.0736,-7.1031,-7.0771,-7.0771,-7.077,-7.077,0,-6.9814,-6.9938,-6.9956,-7.0043,-7.018,-7.0178,-7.0313,-7.0341,-7.0393,-7.0482,-7.0451,-7.0535,-7.0535,-7.0619,-7.0622,-7.0753,-7.0775,-7.0784,-7.0783,-7.0786,-7.0785,-7.0817,-7.0803,-7.0778,-7.0776,-7.0775,-7.0773,0,-7.0027,-7.0044,-7.0194,-7.0255,-7.0272,-7.0371,-7.0421,-7.0502,-7.0519,-7.0632,-7.0659,-7.0685,-7.0783,-7.0793,-7.0906,-7.0908,-7.1067,-7.1051,-7.1046,-7.1043,-7.1143,-7.1134,-7.1468,-7.1511,-7.1225,-7.1227,-7.123,0,-7.0173,-7.0268,-7.0339,-7.0397,-7.0436,-7.0531,-7.0588,-7.0589,-7.065,-7.0729,-7.08,-7.0896,-7.0972,-7.1131,-7.1158,-7.1245,-7.1231,-7.1342,-7.1243,-7.1244,-7.1231,-7.1226,-7.1234,-7.1361,-7.1364,-7.1367,-7.1369,0,-7.0429,-7.0433,-7.0519,-7.0609,-7.0679,-7.0749,-7.0814,-7.0863,-7.0872,-7.0942,-7.1043,-7.1103,-7.1219,-7.1314,-7.1399,-7.1431,-7.1402,-7.14,-7.1428,-7.1432,-7.1425,-7.1429,-7.1098,-7.1392,-7.139,-7.1388,-7.1387,-7.1386,-7.0613,-7.0695,-7.0758,-7.0854,-7.0904,-7.0966,-7.1045,-7.1072,-7.1157,-7.1254,-7.1248,-7.136,-7.1419,-7.153,-7.1569,-7.1655,-7.1617,-7.1657,-7.1667,-7.1677,-7.1687,-7.1412,-7.167,-7.1669,-7.1669,-7.1668,-7.1668,0,-7.0867,-7.0906,-7.0995,-7.1088,-7.1163,-7.1131,-7.1201,-7.1265,-7.1365,-7.1423,-7.15,-7.1615,-7.1707,-7.1742,-7.1831,-7.1893,-7.1881,-7.1916,-7.1911,-7.1919,-7.1716,-7.1683,-7.1924,-7.1924,-7.1924,-7.1924,-7.1924,-7.1924,-7.1008,-7.1146,-7.1157,-7.1318,-7.1355,-7.1466,-7.1508,-7.1564,-7.1611,-7.1742,-7.1819,-7.1842,-7.1891,-7.1983,-7.2065,-7.2072,-7.2106,-7.2147,-7.2149,-7.1959,-7.1933,-7.1908,-7.1877,-7.2155,-7.2155,-7.2344,-7.2346,-7.2347]}]]